TimeEST,TemperatureF,Dew PointF,Humidity,Sea Level PressureIn,VisibilityMPH,Wind Direction,Wind SpeedMPH,Gust SpeedMPH,PrecipitationIn,Events,Conditions,WindDirDegrees,DateUTC
12:53 AM,55.0,48.9,80,30.06,10.0,Calm,Calm,-,N/A,,Clear,0,2012-12-28 05:53:00
1:53 AM,54.0,50.0,86,30.05,10.0,North,3.5,-,N/A,,Clear,350,2012-12-28 06:53:00
2:53 AM,55.0,51.1,86,30.04,10.0,Calm,Calm,-,N/A,,Clear,0,2012-12-28 07:53:00
3:53 AM,54.0,51.1,90,30.04,10.0,Calm,Calm,-,N/A,,Clear,0,2012-12-28 08:53:00
4:53 AM,55.0,52.0,89,30.04,10.0,Calm,Calm,-,N/A,,Clear,0,2012-12-28 09:53:00
6:53 AM,55.9,54.0,93,30.06,10.0,Calm,Calm,-,N/A,,Partly Cloudy,0,2012-12-28 11:53:00
7:53 AM,59.0,57.0,93,30.07,10.0,Calm,Calm,-,N/A,,Partly Cloudy,0,2012-12-28 12:53:00
8:53 AM,71.1,62.1,73,30.08,10.0,East,11.5,-,N/A,,Partly Cloudy,90,2012-12-28 13:53:00
9:53 AM,73.0,64.0,73,30.09,10.0,ESE,11.5,-,N/A,,Partly Cloudy,110,2012-12-28 14:53:00
10:53 AM,73.9,66.0,76,30.09,10.0,ESE,9.2,-,N/A,,Scattered Clouds,110,2012-12-28 15:53:00
11:53 AM,77.0,66.9,71,30.06,10.0,ESE,9.2,-,N/A,,Scattered Clouds,120,2012-12-28 16:53:00
12:43 PM,75.2,66.2,73,30.03,10.0,SE,9.2,-,N/A,,Overcast,130,2012-12-28 17:43:00
12:53 PM,75.0,66.9,76,30.03,10.0,SE,9.2,-,N/A,,Overcast,140,2012-12-28 17:53:00
1:53 PM,75.9,68.0,76,30.01,10.0,SSE,10.4,-,N/A,,Mostly Cloudy,150,2012-12-28 18:53:00
2:00 PM,77.0,68.0,74,30.00,10.0,SE,11.5,-,N/A,,Mostly Cloudy,140,2012-12-28 19:00:00
2:53 PM,77.0,69.1,76,29.99,10.0,SSE,11.5,-,N/A,,Mostly Cloudy,150,2012-12-28 19:53:00
3:53 PM,75.0,70.0,84,29.99,10.0,SSE,8.1,-,N/A,,Mostly Cloudy,150,2012-12-28 20:53:00
4:53 PM,75.0,71.1,87,30.00,10.0,SSE,10.4,-,N/A,,Overcast,150,2012-12-28 21:53:00
5:53 PM,75.0,71.1,87,30.00,10.0,SSE,9.2,-,0.00,,Overcast,150,2012-12-28 22:53:00
6:53 PM,75.0,71.1,87,30.01,10.0,SE,9.2,-,0.00,,Overcast,140,2012-12-28 23:53:00
7:53 PM,75.0,71.1,87,30.02,10.0,SSE,9.2,-,N/A,,Overcast,150,2012-12-29 00:53:00
8:32 PM,75.2,71.6,89,30.02,10.0,SSE,9.2,-,N/A,,Mostly Cloudy,160,2012-12-29 01:32:00
8:53 PM,73.9,71.1,91,30.02,10.0,SSE,9.2,-,N/A,,Partly Cloudy,150,2012-12-29 01:53:00
9:53 PM,73.9,72.0,93,30.02,10.0,SSE,9.2,-,N/A,,Partly Cloudy,150,2012-12-29 02:53:00
10:53 PM,73.9,72.0,93,30.02,10.0,SSE,9.2,-,N/A,,Clear,160,2012-12-29 03:53:00
11:45 PM,75.2,73.4,94,30.00,10.0,SSE,6.9,-,N/A,,Mostly Cloudy,160,2012-12-29 04:45:00
11:53 PM,75.0,73.0,94,30.01,10.0,SSE,6.9,-,N/A,,Mostly Cloudy,160,2012-12-29 04:53:00